Le nostre stazioni meteo in Italia

Pubblicità
Il mio iltempo24.it
Sciacca, Italia (16436): Temperatura & dewpoint: 30.05.2020 19:00:00 - 05.06.2020 19:00:00 (CEST)Sciacca, Italia (16436): velocità del vento: 30.05.2020 19:00:00 - 05.06.2020 19:00:00 (CEST)Sciacca, Italia (16436): direzione del vento: 30.05.2020 19:00:00 - 05.06.2020 19:00:00 (CEST)Sciacca, Italia (16436): reduced air pressure: 30.05.2020 19:00:00 - 05.06.2020 19:00:00 (CEST)Sciacca, Italia (16436): precipitazioni: 30.05.2020 19:00:00 - 05.06.2020 19:00:00 (CEST)
Data & Tempo tt [°C] td [°C] ff [km/h] ff [kn] dd ppp [hPa] rr [mm]
05.06.2020 19:00:00 19,9 17,6 18 10 E 1005,9 -
05.06.2020 18:00:00 20,3 17,8 34 18 O 1005,9 -
05.06.2020 17:00:00 21,5 18,2 28 15 O 1005,8 -
05.06.2020 16:00:00 20,9 19,3 26 14 O 1005,6 -
05.06.2020 15:00:00 19,5 18,1 24 13 O 1006,0 -
05.06.2020 14:00:00 18,2 17,3 5 3 E 1006,4 -
05.06.2020 13:00:00 18,3 17,3 13 7 NNO 1006,5 -
05.06.2020 12:00:00 18,2 17,7 8 4 SO 1006,4 -
05.06.2020 11:00:00 17,8 16,8 18 10 O 1008,8 -
05.06.2020 10:00:00 18,2 17,0 26 14 NO 1006,6 -
05.06.2020 09:00:00 18,3 17,4 28 15 ENE 1006,2 -
05.06.2020 08:00:00 22,0 15,0 11 6 O 1005,7 0,0
05.06.2020 07:00:00 21,5 12,8 11 6 NE 1004,5 -
05.06.2020 06:00:00 21,4 13,0 5 3 NE 1005,6 -
05.06.2020 05:00:00 21,3 12,9 11 6 NE 1005,5 -
05.06.2020 04:00:00 20,3 15,4 8 4 NE 1006,2 -
05.06.2020 03:00:00 18,9 16,3 9 5 NE 1007,1 -
05.06.2020 02:00:00 18,1 16,7 11 6 NE 1008,3 0,0
05.06.2020 01:00:00 18,8 16,3 2 1 NNE 1011,7 -
05.06.2020 00:00:00 20,5 12,4 8 4 E 1010,5 -
04.06.2020 23:00:00 20,5 17,1 13 7 E 1009,0 -
04.06.2020 22:00:00 20,8 18,3 8 4 ESE 1008,2 -
04.06.2020 21:00:00 20,8 19,0 5 3 ESE 1007,8 -
04.06.2020 20:00:00 21,6 19,8 11 6 ESE 1008,1 0,0
04.06.2020 19:00:00 22,9 20,4 13 7 SE 1008,3 -
04.06.2020 18:00:00 23,4 14,3 15 8 SE 1008,5 -
04.06.2020 17:00:00 23,2 19,3 15 8 SE 1009,3 -
04.06.2020 16:00:00 23,6 20,5 15 8 OSO 1009,8 -
04.06.2020 15:00:00 23,6 20,5 15 8 SE 1010,1 -
04.06.2020 14:00:00 23,2 20,1 18 10 SE 1010,7 0,0
04.06.2020 13:00:00 23,1 19,8 16 9 SE 1010,9 -
04.06.2020 12:00:00 22,7 19,4 15 8 SE 1011,1 -
04.06.2020 11:00:00 22,4 19,7 15 8 SE 1010,9 -
04.06.2020 10:00:00 21,5 18,0 15 8 ESE 1010,6 -
04.06.2020 09:00:00 20,0 18,1 13 7 E 1011,1 -
04.06.2020 08:00:00 18,0 16,6 11 6 E 1011,0 0,0
04.06.2020 07:00:00 15,4 14,4 5 3 NNE 1011,0 -
04.06.2020 06:00:00 15,1 14,2 8 4 NE 1010,8 -
04.06.2020 05:00:00 15,2 14,5 4 2 NE 1010,9 -
04.06.2020 04:00:00 15,7 15,3 8 4 NE 1011,2 -
04.06.2020 03:00:00 16,1 15,7 8 4 NE 1011,5 -
04.06.2020 02:00:00 16,5 16,1 4 2 NE 1012,0 0,0
04.06.2020 01:00:00 16,8 16,3 5 3 NNE 1012,1 -
04.06.2020 00:00:00 17,5 16,6 0 0 N 1012,3 -
03.06.2020 23:00:00 17,5 16,5 0 0 N 1012,3 -
03.06.2020 22:00:00 18,5 17,3 0 0 N 1012,2 -
03.06.2020 21:00:00 19,5 18,1 2 1 SO 1011,5 -
03.06.2020 20:00:00 20,9 19,0 9 5 SO 1011,0 0,0
03.06.2020 19:00:00 22,3 18,2 11 6 OSO 1010,7 -
03.06.2020 18:00:00 23,7 11,7 13 7 OSO 1010,8 -
03.06.2020 17:00:00 24,3 12,6 11 6 SO 1011,1 -
03.06.2020 16:00:00 24,2 13,0 11 6 SO 1011,4 -
03.06.2020 15:00:00 22,8 12,1 15 8 OSO 1011,8 -
03.06.2020 14:00:00 23,5 12,7 13 7 OSO 1011,9 0,0
03.06.2020 13:00:00 22,5 13,2 13 7 OSO 1012,3 -
03.06.2020 12:00:00 22,3 17,2 9 5 SO 1012,3 -
03.06.2020 11:00:00 21,6 15,4 9 5 OSO 1012,5 -
03.06.2020 10:00:00 21,2 15,9 8 4 S 1012,4 -
03.06.2020 09:00:00 20,0 15,1 2 1 O 1012,4 -
03.06.2020 08:00:00 16,6 14,9 0 0 N 1012,5 0,0
03.06.2020 07:00:00 16,5 14,8 5 3 NO 1012,4 -
03.06.2020 06:00:00 16,8 15,6 0 0 N 1012,2 -
03.06.2020 05:00:00 17,2 16,2 0 0 N 1011,9 -
03.06.2020 04:00:00 16,9 14,7 0 0 N 1012,2 -
03.06.2020 03:00:00 17,1 13,7 2 1 N 1012,5 -
03.06.2020 02:00:00 17,5 13,1 0 0 N 1012,7 0,0
03.06.2020 01:00:00 18,4 16,7 0 0 N 1013,0 -
03.06.2020 00:00:00 18,1 10,7 0 0 N 1013,2 -
02.06.2020 23:00:00 19,9 16,1 0 0 N 1013,0 -
02.06.2020 22:00:00 19,0 9,4 9 5 NNE 1012,8 -
02.06.2020 21:00:00 19,6 17,3 9 5 NE 1012,4 -
02.06.2020 20:00:00 21,3 17,6 2 1 SE 1012,3 0,0
02.06.2020 19:00:00 21,3 18,6 4 2 S 1012,4 -
02.06.2020 18:00:00 21,4 18,3 15 8 OSO 1012,9 -
02.06.2020 17:00:00 22,0 17,1 16 9 OSO 1013,3 -
02.06.2020 16:00:00 22,2 18,5 16 9 OSO 1013,9 -
02.06.2020 15:00:00 22,0 16,6 15 8 OSO 1014,2 -
02.06.2020 14:00:00 21,8 16,0 16 9 OSO 1014,9 0,0
02.06.2020 13:00:00 21,8 16,2 13 7 OSO 1015,1 -
02.06.2020 12:00:00 21,0 16,3 15 8 OSO 1015,4 -
02.06.2020 11:00:00 20,9 16,0 13 7 OSO 1015,4 -
02.06.2020 10:00:00 20,1 15,7 5 3 SO 1015,5 -
02.06.2020 09:00:00 19,0 15,2 0 0 N 1015,2 -
02.06.2020 08:00:00 17,0 14,4 0 0 N 1014,9 0,0
02.06.2020 07:00:00 14,0 12,8 0 0 N 1015,1 -
02.06.2020 06:00:00 13,7 12,4 0 0 N 1014,9 -
02.06.2020 05:00:00 13,7 12,6 0 0 N 1015,0 -
02.06.2020 04:00:00 14,1 12,9 0 0 N 1015,3 -
02.06.2020 03:00:00 14,8 13,3 0 0 N 1015,2 -
02.06.2020 02:00:00 15,2 13,8 0 0 N 1015,5 0,0
02.06.2020 01:00:00 15,8 14,4 0 0 N 1015,2 -
02.06.2020 00:00:00 16,1 14,7 5 3 NNO 1015,2 -
01.06.2020 23:00:00 16,7 15,0 0 0 N 1015,5 -
01.06.2020 22:00:00 18,4 16,8 0 0 N 1015,1 -
01.06.2020 21:00:00 19,6 17,5 2 1 SO 1015,4 -
01.06.2020 20:00:00 21,2 17,5 0 0 N 1013,2 0,0
01.06.2020 19:00:00 22,2 18,5 5 3 SE 1013,2 -
01.06.2020 18:00:00 22,8 18,5 9 5 S 1013,1 -
01.06.2020 17:00:00 23,0 13,9 11 6 SO 1013,6 -
01.06.2020 16:00:00 22,9 14,1 15 8 SO 1014,2 -
01.06.2020 15:00:00 22,0 15,0 11 6 SO 1015,0 -
01.06.2020 14:00:00 22,3 16,7 15 8 SO 1015,2 0,0
01.06.2020 13:00:00 22,0 11,4 11 6 SO 1016,0 -
01.06.2020 12:00:00 20,9 13,7 11 6 SO 1016,2 -
01.06.2020 11:00:00 20,2 12,1 8 4 SO 1015,5 -
01.06.2020 10:00:00 19,7 11,9 8 4 SO 1015,3 -
01.06.2020 09:00:00 18,1 10,9 4 2 SO 1015,4 -
01.06.2020 08:00:00 17,7 10,5 0 0 N 1015,0 0,0
01.06.2020 07:00:00 16,1 9,5 11 6 NNE 1014,9 -
01.06.2020 06:00:00 14,0 7,9 4 2 N 1015,0 -
01.06.2020 05:00:00 14,6 8,3 5 3 NE 1014,9 -
01.06.2020 04:00:00 15,4 11,7 2 1 N 1015,1 -
01.06.2020 03:00:00 14,6 10,6 4 2 NNO 1015,3 -
01.06.2020 02:00:00 16,2 9,3 0 0 N 1015,5 0,0
01.06.2020 01:00:00 17,1 10,4 9 5 NE 1015,4 -
01.06.2020 00:00:00 17,9 10,7 16 9 NNE 1015,4 -
31.05.2020 23:00:00 18,4 10,9 13 7 N 1014,9 -
31.05.2020 22:00:00 18,7 11,2 11 6 N 1014,3 -
31.05.2020 21:00:00 18,9 13,7 13 7 NNO 1013,7 -
31.05.2020 20:00:00 20,2 12,1 16 9 NO 1013,4 0,0
31.05.2020 19:00:00 22,3 12,5 15 8 NNO 1013,3 -
31.05.2020 18:00:00 23,5 11,5 16 9 N 1013,0 -
31.05.2020 17:00:00 24,2 13,0 15 8 N 1013,1 -
31.05.2020 16:00:00 23,4 12,0 16 9 N 1013,2 -
31.05.2020 15:00:00 23,4 13,8 15 8 OSO 1013,2 -
31.05.2020 14:00:00 21,6 17,3 16 9 OSO 1014,5 0,0
31.05.2020 13:00:00 20,9 18,2 18 10 OSO 1014,8 -
31.05.2020 12:00:00 21,2 18,7 18 10 SO 1014,7 -
31.05.2020 11:00:00 21,0 15,2 11 6 O 1014,8 -
31.05.2020 10:00:00 20,4 16,0 5 3 NO 1014,7 -
31.05.2020 09:00:00 19,0 16,7 5 3 SO 1014,7 -
31.05.2020 08:00:00 17,5 16,0 11 6 O 1014,6 0,0
31.05.2020 07:00:00 16,4 15,7 8 4 ONO 1014,4 -
31.05.2020 06:00:00 14,0 13,6 8 4 NO 1014,3 -
31.05.2020 05:00:00 14,0 13,6 0 0 N 1014,4 -
31.05.2020 04:00:00 14,7 14,3 0 0 N 1014,3 -
31.05.2020 03:00:00 15,0 14,6 0 0 N 1014,6 -
31.05.2020 02:00:00 15,3 14,8 0 0 N 1015,0 0,0
31.05.2020 01:00:00 15,8 14,9 0 0 N 1015,3 -
31.05.2020 00:00:00 17,1 16,1 0 0 N 1015,3 -
30.05.2020 23:00:00 18,4 17,4 0 0 N 1015,1 -
30.05.2020 22:00:00 18,7 17,7 0 0 N 1014,7 -
30.05.2020 21:00:00 19,0 17,6 0 0 N 1014,1 -
30.05.2020 20:00:00 20,0 18,2 0 0 N 1013,4 0,0
30.05.2020 19:00:00 20,9 17,8 4 2 SSE 1012,8 -

tt = Temperatura
td = dewpoint
ff = velocità del vento
dd = direzione del vento
ppp = reduced air pressure
rr = precipitazioni

Stazioni seguenti

WeatherPro
AMSI
MeteoEarth